Powrót do katalogu

COSMOS 1247 DEB

LostHEO
NORAD 12992·DEBRIS·🇷🇺 Russia

Wystrzelony Feb 19, 1981 z Plesetsk Cosmodrome

Loading…

Następne Przeloty (najbliższe 24 godziny)

TLE

NieaktualneSource: Space-Track

Epoka: Oct 27, 2025, 04:38 UTC

1 12992U 81016H   25300.19352463 -.00000854  00000-0  00000-0 0  9990
2 12992  68.7531  25.5004 6218454 348.9441   2.1450  2.02527185227065

Śledź COSMOS 1247 DEB w czasie rzeczywistym z AllMySat

Download on the App Store